Zurück zum Katalog

DMSP 5D-2 F13 DEB

AktivSSO
NORAD 40526·DEBRIS·🇺🇸 United States

Gestartet Mar 24, 1995 von Vandenberg Space Force Base

Loading…

Nächste Überflüge (nächste 24 Stunden)

TLE

AktuellSource: Space-Track

Epoche: Sep 14, 2026, 08:31 UTC

1 40526U 95015DN  26257.35536394  .00003489  00000-0  95329-3 0  9992
2 40526  98.6102 304.7009 0023327  38.6099 321.6756 14.47752491598220

Verfolge DMSP 5D-2 F13 DEB in Echtzeit mit AllMySat

Download on the App Store